Location: Seattle
(47.6064°N, 122.3308°W)
Time: 19:20:47
(UTC-07:00)

Tiros 1 - Pass Details

Date: 04 August 2021
Orbit: 630 x 663 km, 48.4° (Epoch: 18 September)

Event Time Altitude Azimuth Distance (km) Brightness Sun altitude
Rises 23:52:15 0° 285° (WNW) 2,968 11.1 -22.9°
Reaches altitude 10° 23:54:56 10° 272° (W) 2,048 10.0 -23.0°
Enters shadow 23:57:36 22° 240° (WSW) 1,398 8.7 -23.2°
